Location: Nasgenstadt
(48.2786°N, 9.7553°E)
Time: 16:22:54
(UTC+02:00)

ISS - Pass Details

Date: 19 May 2021
Orbit: 419 x 422 km, 51.6° (Epoch: 25 June)

Event Time Altitude Azimuth Distance (km) Brightness Sun altitude
Rises 01:58:08 0° 292° (WNW) 2,376 0.2 -21.3°
Reaches altitude 10° 02:00:14 10° 291° (WNW) 1,509 -0.8 -21.3°
Enters shadow 02:01:35 22° 289° (WNW) 973 -1.9 -21.2°
